weather.gov     
National Weather Service

Regional Weather Roundup
NWS Homepage
This page is being discontinued on March 12, 2014.
The same data is available at this site. Please update your bookmarks.
Thank you, and we apologize for the inconvenience.
Please send an email to SR-SRH.Webmaster@noaa.gov with any concerns.


Current Version
Previous Version:    01  02  03  04  05  06  07  08  09  10  11  12  13  14  15  16  17  18  19  20  21  22  23  24  25  26  27  28  29  30  
   31  32  33  34  35  36  37  38  39  40  41  42  43  44  45  46  47  48  49  50  51  52  53  54  55  56  57  58  59  60  
[Printable]
247
ASUS41 KCTP 250010
RWRCTP

REGIONAL WEATHER ROUNDUP
NATIONAL WEATHER SERVICE STATE COLLEGE PA
800 PM EDT THU APR 24 2014

Note: "fair" indicates few or no clouds below 12,000 feet with no
significant weather and/or obstructions to visibility.

* = STATION THAT DOES NOT REPORT PRECIPITATION /E.G. RAIN...SNOW...ETC/
    THUNDER OR FOG.

PAZ002>004-007>009-013>016-020>023-029>032-250100-
WESTERN PENNSYLVANIA

CITY           SKY/WX    TMP DP  RH WIND       PRES   REMARKS
ERIE           PTCLDY    47  14  26 NE7       30.03F
MEADVILLE      PTCLDY    52  21  29 NE7       30.00S
FRANKLIN*      PTCLDY    54  16  22 CALM      30.01F
NEW CASTLE     FAIR      55  19  24 CALM      30.00F
BEAVER COUNTY  CLEAR     55  21  26 CALM      29.99F
BUTLER*        PTCLDY    55  18  22 CALM      30.01F
PITTSBURGH INT MOCLDY    57  18  21 E3        29.98F
PITTSBURGH     MOCLDY    58  15  18 E3        29.98F
INDIANA*       MOCLDY    55  18  22 CALM      30.01S
LATROBE        CLEAR     55  21  26 N6        30.01F
WASHINGTON CO* MOCLDY    54  21  28 E3        30.01S
$$

PAZ004>006-010>012-017>019-024>028-033>037-041-042-045-046-049>053-250100-
CENTRAL PENNSYLVANIA

CITY           SKY/WX    TMP DP  RH WIND       PRES   REMARKS
BRADFORD       CLEAR     50  11  20 CALM      30.01S
DUBOIS         PTCLDY    55   9  16 E3        29.99S
CLEARFIELD     PTCLDY    56   9  15 CALM      30.00S
JOHNSTOWN      MOCLDY    52  13  21 CALM      29.99F
ALTOONA        MOCLDY    54  26  34 CALM      30.00S
STATE COLLEGE  CLEAR     59   7  12 CALM      30.00R
WILLIAMSPORT   CLEAR     55  13  18 N5        30.02R
SELINSGROVE    CLEAR     54  19  25 NE7       30.01R
FT INDIANTOWN  CLEAR     57  13  17 NE3       30.01R
CAPITAL CITY   CLEAR     61  12  14 CALM      30.00R
HARRISBURG     PTCLDY    60  26  27 CALM      29.99R
YORK           CLEAR     49  34  56 CALM      30.00R
$$

PAZ038>040-043-044-047-048-054-055-060>062-067>071-250100-
EASTERN PENNSYLVANIA

CITY           SKY/WX    TMP DP  RH WIND       PRES   REMARKS
SCRANTON       CLEAR     50  11  20 NW14      30.02R
MOUNT POCONO   CLEAR     46   8  21 NW14G21   29.99R
ALLENTOWN      CLEAR     54  11  18 NW9G18    30.01R
QUAKERTOWN*    CLEAR     55  14  19 N6        30.01R
READING        CLEAR     55  18  23 NW8       29.99R
LANCASTER      CLEAR     54  17  23 N6        30.00R
COATESVILLE    CLEAR     55  10  16 NW8       30.01R
POTTSTOWN      CLEAR     56  13  18 N9        30.01R
BLUE BELL      CLEAR     59  14  17 N3        29.99R
DOYLESTOWN     CLEAR     54  13  19 NW13G22   29.99R
WILLOW GROVE   NOT AVBL
NORTH PHILA    CLEAR     59  10  14 NW13      30.00R
PHILADELPHIA   PTCLDY    62  11  13 NW10      29.99R
$$




U.S. Dept. of Commerce
NOAA National Weather Service
1325 East West Highway
Silver Spring, MD 20910
E-mail: w-nws.webmaster@noaa.gov
Page last modified: May 16, 2007
NATIONAL WEATHER SERVICE: for Safety, for Work, for Fun - FOR LIFE